User: anonymous   Login
Location: Unspecified
(0.0000°N, 0.0000°E)
Time: 08:43:36
(UTC+00:00)
Language:

MERIDIAN 3 - Orbit

View from above orbital plane
View from above orbital plane
View from above satellite
View from above satellite

Ground track
Ground track

The orbit data is extracted from the following two-line orbital elements,

1 37212U 10058A   17293.90495972  .00000065  00000-0  10000-3 0  9991
2 37212  63.2919  59.3031 6975785 274.1869  18.3296  2.00614023 51049
Epoch (UTC): 20 October 2017 21:43:08
Eccentricity: 0.6975785
inclination: 63.2919°
perigee height: 1653 km
apogee height: 38702 km
right ascension of ascending node: 59.3031°
argument of perigee: 274.1869°
revolutions per day: 2.00614023
mean anomaly at epoch: 18.3296°
orbit number at epoch: 5104

The dashed part of the orbit path shows where the satellite is in the earth's shadow,  

DLR